Tracking 28565 objects as of 3-Mar-2024
HD Live streaming from Space Station
objects crossing your sky now

IRIDIUM 39

Track IRIDIUM 39 now!
10-day predictions
IRIDIUM 39 is classified as:


NORAD ID: 25042
Int'l Code: 1997-069D
Perigee: 725.6 km
Apogee: 754.9 km
Inclination: 86.4 °
Period: 99.5 minutes
Semi major axis: 7111 km
RCS: 4.3221 m2 (large)
Launch date: November 9, 1997
Source: United States (US)
Launch site: AIR FORCE WESTERN TEST RANGE (AFWTR)
Your satellite tracking list
Your tracking list is empty




NASA's NSSDC Master Catalog

Two Line Element Set (TLE):
1 25042U 97069D   24063.47598152  .00001015  00000-0  26887-3 0  9991
2 25042  86.3886  52.7715 0020634  78.5107 281.8412 14.47723908380826
Source of the keplerian elements: AFSPC